EW4799 Weather Reports


time (UTC)temp
F
wind
direction
speed
knots
gust
knots
rain 1hr
in
rain 24hr
in
rain mn
in
humidity
%
barometer
mb
20260904061552 57 0 0.0 0.0 0.00 0.04 0.04 86 1011.4
20260904060056 57 0 0.0 0.0 0.00 0.04 0.04 86 1011.3
20260904054610 57 0 0.0 0.0 0.00 0.04 0.04 85 1011.2
20260904053055 58 0 0.0 0.0 0.00 0.04 0.04 84 1011.3
20260904051610 58 0 0.0 0.0 0.00 0.04 0.04 82 1011.3
20260904050106 59 0 0.0 0.0 0.00 0.04 0.04 81 1011.4
20260904044558 59 0 0.0 0.0 0.00 0.04 0.04 80 1011.4
20260904043058 59 0 0.0 0.0 0.00 0.04 0.04 79 1011.4
20260904041556 59 0 0.0 0.0 0.00 0.04 0.04 77 1011.4
20260904040105 60 0 0.0 0.0 0.00 0.04 0.04 76 1011.4
20260904034600 59 0 0.0 0.0 0.00 0.04 0.04 77 1011.3
20260904033059 60 0 0.0 0.0 0.00 0.04 0.04 75 1011.1
20260904031608 61 0 0.0 0.0 0.00 0.04 0.04 73 1011.0
20260904024557 62 0 0.0 0.9 0.00 0.04 0.04 70 1010.9
20260904023103 63 0 0.0 0.0 0.00 0.04 0.04 71 1010.8
20260904021608 63 0 0.0 0.0 0.00 0.04 0.04 69 1010.7
20260904014611 66 0 0.0 0.9 0.00 0.05 0.04 65 1010.3
20260904013100 68 21 0.0 2.6 0.00 0.05 0.04 56 1010.2
20260904011558 72 0 0.0 1.7 0.00 0.05 0.04 49 1010.3
20260904010056 73 0 0.0 1.7 0.00 0.05 0.04 49 1010.2
20260904004557 72 0 0.0 1.7 0.00 0.06 0.04 54 1010.3
20260904003104 70 180 0.0 0.0 0.00 0.06 0.04 58 1010.3
20260904001554 67 0 0.0 1.7 0.00 0.06 0.04 64 1010.4
20260903234558 67 162 0.0 1.7 0.00 0.10 0.04 62 1010.3
20260903233057 67 0 0.0 0.9 0.00 0.10 0.04 61 1010.2
20260903231601 66 0 0.0 0.9 0.00 0.10 0.04 60 1010.2
20260903230107 65 0 0.0 0.9 0.00 0.10 0.04 62 1010.3
20260903224613 65 155 0.0 0.0 0.00 0.16 0.04 61 1010.4
20260903223059 65 176 0.0 1.7 0.00 0.16 0.04 62 1010.5
20260903221555 65 0 0.0 1.7 0.00 0.16 0.04 63 1010.5
20260903220100 65 0 0.0 1.7 0.00 0.16 0.04 64 1010.6
20260903214611 65 0 0.0 1.7 0.00 0.20 0.04 65 1010.6
20260903213113 66 0 0.0 2.6 0.00 0.20 0.04 59 1010.5
20260903211608 68 140 0.9 4.3 0.00 0.20 0.04 55 1010.3
20260903210127 68 0 0.0 2.6 0.00 0.20 0.04 57 1010.3
20260903204603 67 214 0.9 5.2 0.00 0.22 0.04 58 1010.2
20260903203114 66 159 0.9 4.3 0.00 0.22 0.04 63 1010.1
20260903201602 64 168 0.0 3.5 0.00 0.22 0.04 65 1010.2
20260903200104 64 0 0.0 2.6 0.00 0.22 0.04 64 1010.2
20260903194603 64 0 0.0 2.6 0.00 0.25 0.04 63 1010.2
20260903193105 64 171 0.9 3.5 0.00 0.25 0.04 63 1010.2
20260903191602 63 154 0.9 3.5 0.00 0.25 0.04 65 1010.1
20260903190104 63 160 0.0 3.5 0.00 0.25 0.04 66 1010.1
20260903184601 62 175 0.9 3.5 0.00 0.25 0.04 68 1010.0
20260903183101 61 194 0.9 5.2 0.00 0.25 0.04 69 1010.1
20260903181603 61 164 0.9 4.3 0.00 0.25 0.04 69 1010.1
20260903180104 61 194 1.7 7.0 0.00 0.25 0.04 69 1009.8
20260903174600 62 190 1.7 5.2 0.00 0.25 0.04 67 1009.9
20260903173101 61 0 0.0 3.5 0.00 0.25 0.04 70 1009.7
20260903171600 61 211 0.0 1.7 0.00 0.25 0.04 74 1009.7
20260903164611 59 174 0.0 0.9 0.00 0.25 0.04 77 1009.6
20260903163101 58 0 0.0 1.7 0.00 0.25 0.04 83 1009.7
20260903161557 57 236 0.0 0.9 0.00 0.25 0.04 86 1009.7
20260903160113 56 0 0.0 0.0 0.00 0.25 0.04 85 1009.6
20260903154610 55 0 0.0 0.0 0.00 0.25 0.04 84 1009.7
20260903153057 55 0 0.0 0.9 0.00 0.25 0.04 85 1009.6
20260903151601 55 0 0.0 0.9 0.00 0.25 0.04 85 1009.6
20260903150101 55 0 0.0 0.9 0.00 0.25 0.04 85 1009.7
20260903144607 55 0 0.0 0.9 0.01 0.25 0.04 84 1009.6
20260903143111 54 0 0.0 0.9 0.01 0.25 0.04 85 1009.5
20260903141606 54 0 0.0 1.7 0.01 0.25 0.04 84 1009.4
20260903140107 54 0 0.0 0.0 0.01 0.25 0.04 84 1009.3
20260903134605 54 0 0.0 0.0 0.01 0.24 0.03 85 1009.3
20260903133105 54 0 0.0 0.0 0.02 0.24 0.03 86 1009.2
20260903131601 54 0 0.0 0.0 0.02 0.24 0.03 87 1009.2
20260903124600 54 0 0.0 1.7 0.01 0.23 0.02 87 1009.2
20260903123058 54 0 0.0 2.6 0.00 0.22 0.01 84 1009.1
20260903121600 54 0 0.0 0.0 0.00 0.22 0.01 84 1008.7
20260903120107 54 0 0.0 0.0 0.00 0.22 0.01 84 1008.5
20260903114605 54 0 0.0 0.0 0.00 0.22 0.01 85 1008.5
20260903113102 54 0 0.0 0.0 0.00 0.22 0.01 84 1008.4
20260903111604 54 0 0.0 0.0 0.00 0.22 0.01 85 1008.5
20260903110103 54 0 0.0 0.0 0.00 0.22 0.01 85 1008.6
20260903104610 54 0 0.0 0.0 0.01 0.22 0.01 85 1008.5
20260903103106 54 0 0.0 0.0 0.01 0.22 0.01 86 1008.4
20260903101609 54 0 0.0 0.0 0.01 0.22 0.01 86 1008.3
20260903100109 54 0 0.0 0.0 0.01 0.22 0.01 87 1008.5
20260903094607 54 0 0.0 0.0 0.00 0.21 0.00 87 1008.6
20260903093115 54 0 0.0 0.0 0.00 0.21 0.00 87 1008.4
20260903091607 53 0 0.0 0.0 0.00 0.21 0.00 87 1008.3
20260903090105 53 0 0.0 0.0 0.00 0.21 0.00 87 1008.2
20260903084555 53 0 0.0 0.0 0.00 0.21 0.00 87 1008.2
20260903083100 53 0 0.0 0.0 0.00 0.21 0.00 87 1008.2
20260903081600 53 0 0.0 0.0 0.00 0.21 0.00 87 1008.2
20260903080059 54 0 0.0 0.0 0.00 0.21 0.00 86 1008.3
20260903074600 54 0 0.0 0.0 0.00 0.21 0.00 85 1008.3
20260903073100 56 0 0.0 0.0 0.00 0.21 0.00 83 1008.3
20260903071556 56 0 0.0 0.9 0.00 0.21 0.00 82 1008.2
20260903070100 56 0 0.0 0.0 0.00 0.21 0.00 81 1008.2
20260903064559 57 184 0.0 2.6 0.00 0.21 0.21 80 1008.1
20260903063125 56 195 0.0 2.6 0.00 0.21 0.21 82 1008.1